User: anonymous   Login
Location: Unspecified
(0.0000°N, 0.0000°E)
Time: 07:26:01
(UTC+01:00)
Language:

Centaur AC-64 - Orbit

View from above orbital plane
View from above orbital plane
View from above satellite
View from above satellite

Ground track
Ground track

The orbit data is extracted from the following two-line orbital elements,

1 15874U 85055B   14355.39759050  .00009091  00000-0  31070-2 0  6151
2 15874 023.1293 251.0786 6610742 010.9959 293.8431 03.14715204301578
Epoch (UTC): 21 December 2014 09:32:31
Eccentricity: 0.6610742
inclination: 23.1293°
perigee height: 288 km
apogee height: 26294 km
right ascension of ascending node: 251.0786°
argument of perigee: 10.9959°
revolutions per day: 3.14715204
mean anomaly at epoch: 293.8431°
orbit number at epoch: 30157

The dashed part of the orbit path shows where the satellite is in the earth's shadow,  

DLR